Time,TemperatureF,DewpointF,PressureIn,WindDirection,WindDirectionDegrees,WindSpeedMPH,WindSpeedGustMPH,Humidity,HourlyPrecipIn,Conditions,Clouds,dailyrainin,SolarRadiationWatts/m^2,SoftwareType,DateUTC
2013-02-22 00:31:00,45.5,35.9,30.18,WNW,297,0.0,0.0,69,0.00,,,0.00,0,Wunderground v.1.15,2013-02-22 08:31:00,
2013-02-22 00:41:00,45.5,35.9,30.18,South,177,0.0,0.0,69,0.00,,,0.00,0,Wunderground v.1.15,2013-02-22 08:41:00,
2013-02-22 00:46:00,45.4,35.8,30.19,South,177,0.0,0.0,69,0.00,,,0.00,0,Wunderground v.1.15,2013-02-22 08:46:00,
2013-02-22 00:56:00,45.1,35.5,30.19,South,177,0.0,0.0,69,0.00,,,0.00,0,Wunderground v.1.15,2013-02-22 08:56:00,
2013-02-22 01:06:00,44.9,35.3,30.19,South,177,0.0,0.0,69,0.00,,,0.00,0,Wunderground v.1.15,2013-02-22 09:06:00,
2013-02-22 01:16:00,44.8,35.6,30.19,South,177,0.0,0.0,70,0.00,,,0.00,0,Wunderground v.1.15,2013-02-22 09:16:00,
2013-02-22 01:21:00,44.8,35.2,30.19,South,177,0.0,0.0,69,0.00,,,0.00,0,Wunderground v.1.15,2013-02-22 09:21:00,
2013-02-22 01:26:00,44.8,35.2,30.19,South,177,0.0,0.0,69,0.00,,,0.00,0,Wunderground v.1.15,2013-02-22 09:26:00,
2013-02-22 01:36:00,44.8,35.2,30.19,South,177,0.0,0.0,69,0.00,,,0.00,0,Wunderground v.1.15,2013-02-22 09:36:00,
2013-02-22 01:41:00,44.8,35.6,30.19,South,177,0.0,0.0,70,0.00,,,0.00,0,Wunderground v.1.15,2013-02-22 09:41:00,
2013-02-22 01:51:00,44.6,35.4,30.18,South,177,0.0,0.0,70,0.00,,,0.00,0,Wunderground v.1.15,2013-02-22 09:51:00,
2013-02-22 02:01:00,44.5,35.3,30.19,South,177,0.0,0.0,70,0.00,,,0.00,0,Wunderground v.1.15,2013-02-22 10:01:00,
2013-02-22 02:11:00,44.3,35.1,30.19,South,177,0.0,0.0,70,0.00,,,0.00,0,Wunderground v.1.15,2013-02-22 10:11:00,
2013-02-22 02:16:00,44.3,35.1,30.18,South,177,0.0,0.0,70,0.00,,,0.00,0,Wunderground v.1.15,2013-02-22 10:16:00,
2013-02-22 02:26:00,44.3,35.1,30.18,South,177,0.0,0.0,70,0.00,,,0.00,0,Wunderground v.1.15,2013-02-22 10:26:00,
2013-02-22 02:36:00,44.2,35.0,30.18,South,177,0.0,0.0,70,0.00,,,0.00,0,Wunderground v.1.15,2013-02-22 10:36:00,
2013-02-22 02:41:00,44.2,35.0,30.18,South,177,0.0,0.0,70,0.00,,,0.00,0,Wunderground v.1.15,2013-02-22 10:41:00,
2013-02-22 02:46:00,44.1,34.9,30.18,South,177,0.0,0.0,70,0.00,,,0.00,0,Wunderground v.1.15,2013-02-22 10:46:00,
2013-02-22 02:56:00,43.9,35.1,30.18,South,177,0.0,0.0,71,0.00,,,0.00,0,Wunderground v.1.15,2013-02-22 10:56:00,
2013-02-22 03:01:00,43.9,35.1,30.18,South,177,0.0,0.0,71,0.00,,,0.00,0,Wunderground v.1.15,2013-02-22 11:01:00,
2013-02-22 03:11:00,43.5,34.7,30.18,South,177,0.0,0.0,71,0.00,,,0.00,0,Wunderground v.1.15,2013-02-22 11:11:00,
2013-02-22 03:16:00,43.3,34.9,30.18,South,177,0.0,0.0,72,0.00,,,0.00,0,Wunderground v.1.15,2013-02-22 11:16:00,
2013-02-22 03:26:00,43.1,35.0,30.18,South,177,0.0,0.0,73,0.00,,,0.00,0,Wunderground v.1.15,2013-02-22 11:26:00,
2013-02-22 03:31:00,42.9,34.8,30.18,South,177,0.0,0.0,73,0.00,,,0.00,0,Wunderground v.1.15,2013-02-22 11:31:00,
2013-02-22 03:36:00,42.9,34.8,30.18,South,177,0.0,0.0,73,0.00,,,0.00,0,Wunderground v.1.15,2013-02-22 11:36:00,
2013-02-22 03:46:00,42.9,34.8,30.18,South,177,0.0,0.0,73,0.00,,,0.00,0,Wunderground v.1.15,2013-02-22 11:46:00,
2013-02-22 03:56:00,42.9,34.8,30.18,South,177,0.0,0.0,73,0.00,,,0.00,0,Wunderground v.1.15,2013-02-22 11:56:00,
2013-02-22 04:01:00,42.8,35.1,30.18,South,177,0.0,0.0,74,0.00,,,0.00,0,Wunderground v.1.15,2013-02-22 12:01:00,
2013-02-22 04:11:00,42.6,34.9,30.18,South,177,0.0,0.0,74,0.00,,,0.00,0,Wunderground v.1.15,2013-02-22 12:11:00,
2013-02-22 04:16:00,42.3,34.9,30.18,South,177,0.0,0.0,75,0.00,,,0.00,0,Wunderground v.1.15,2013-02-22 12:16:00,
2013-02-22 04:26:00,42.2,34.8,30.18,South,177,0.0,0.0,75,0.00,,,0.00,0,Wunderground v.1.15,2013-02-22 12:26:00,
2013-02-22 04:31:00,42.1,35.1,30.19,South,177,0.0,0.0,76,0.00,,,0.00,0,Wunderground v.1.15,2013-02-22 12:31:00,
2013-02-22 04:36:00,41.9,34.9,30.19,South,177,0.0,0.0,76,0.00,,,0.00,0,Wunderground v.1.15,2013-02-22 12:36:00,
2013-02-22 04:46:00,42.1,35.1,30.18,South,177,0.0,0.0,76,0.00,,,0.00,0,Wunderground v.1.15,2013-02-22 12:46:00,
2013-02-22 04:51:00,42.1,35.1,30.18,South,177,0.0,0.0,76,0.00,,,0.00,0,Wunderground v.1.15,2013-02-22 12:51:00,
2013-02-22 04:56:00,42.1,35.1,30.18,South,177,0.0,0.0,76,0.00,,,0.00,0,Wunderground v.1.15,2013-02-22 12:56:00,
2013-02-22 05:06:00,42.1,35.1,30.20,South,177,0.0,0.0,76,0.00,,,0.00,0,Wunderground v.1.15,2013-02-22 13:06:00,
2013-02-22 05:11:00,42.1,35.1,30.20,South,177,0.0,0.0,76,0.00,,,0.00,0,Wunderground v.1.15,2013-02-22 13:11:00,
2013-02-22 05:16:00,42.1,35.1,30.21,South,177,0.0,0.0,76,0.00,,,0.00,0,Wunderground v.1.15,2013-02-22 13:16:00,
2013-02-22 05:26:00,42.1,35.1,30.21,South,177,0.0,0.0,76,0.00,,,0.00,0,Wunderground v.1.15,2013-02-22 13:26:00,
2013-02-22 05:36:00,41.9,34.9,30.21,South,177,0.0,0.0,76,0.00,,,0.00,0,Wunderground v.1.15,2013-02-22 13:36:00,
2013-02-22 05:41:00,41.9,34.9,30.21,South,177,0.0,0.0,76,0.00,,,0.00,0,Wunderground v.1.15,2013-02-22 13:41:00,
2013-02-22 05:51:00,41.9,34.9,30.21,South,177,0.0,0.0,76,0.00,,,0.00,0,Wunderground v.1.15,2013-02-22 13:51:00,
2013-02-22 05:56:00,42.1,34.7,30.21,South,177,0.0,0.0,75,0.00,,,0.00,0,Wunderground v.1.15,2013-02-22 13:56:00,
2013-02-22 06:06:00,42.1,34.7,30.21,South,177,0.0,0.0,75,0.00,,,0.00,0,Wunderground v.1.15,2013-02-22 14:06:00,
2013-02-22 06:11:00,41.9,34.6,30.21,South,177,0.0,0.0,75,0.00,,,0.00,0,Wunderground v.1.15,2013-02-22 14:11:00,
2013-02-22 06:16:00,41.8,34.8,30.21,South,177,0.0,0.0,76,0.00,,,0.00,0,Wunderground v.1.15,2013-02-22 14:16:00,
2013-02-22 06:26:00,41.6,34.6,30.21,South,177,0.0,0.0,76,0.00,,,0.00,0,Wunderground v.1.15,2013-02-22 14:26:00,
2013-02-22 06:36:00,41.3,34.3,30.21,South,177,0.0,0.0,76,0.00,,,0.00,0,Wunderground v.1.15,2013-02-22 14:36:00,
2013-02-22 06:46:00,41.3,34.3,30.21,South,177,0.0,0.0,76,0.00,,,0.00,0,Wunderground v.1.15,2013-02-22 14:46:00,
2013-02-22 06:51:00,41.3,34.3,30.21,South,177,0.0,0.0,76,0.00,,,0.00,0,Wunderground v.1.15,2013-02-22 14:51:00,
2013-02-22 06:56:00,41.2,34.2,30.21,South,177,0.0,0.0,76,0.00,,,0.00,5,Wunderground v.1.15,2013-02-22 14:56:00,
2013-02-22 07:06:00,41.3,34.3,30.22,South,177,0.0,0.0,76,0.00,,,0.00,12,Wunderground v.1.15,2013-02-22 15:06:00,
2013-02-22 07:16:00,41.6,34.6,30.22,South,177,0.0,0.0,76,0.00,,,0.00,21,Wunderground v.1.15,2013-02-22 15:16:00,
2013-02-22 07:21:00,41.8,34.8,30.22,South,177,0.0,0.0,76,0.00,,,0.00,25,Wunderground v.1.15,2013-02-22 15:21:00,
2013-02-22 07:26:00,41.9,34.9,30.22,West,271,0.0,0.0,76,0.00,,,0.00,30,Wunderground v.1.15,2013-02-22 15:26:00,
2013-02-22 07:36:00,42.3,34.9,30.23,West,271,0.0,0.0,75,0.00,,,0.00,39,Wunderground v.1.15,2013-02-22 15:36:00,
2013-02-22 07:46:00,43.1,35.7,30.23,West,271,0.0,0.0,75,0.00,,,0.00,51,Wunderground v.1.15,2013-02-22 15:46:00,
2013-02-22 07:51:00,43.5,36.1,30.23,West,271,0.0,0.0,75,0.00,,,0.00,53,Wunderground v.1.15,2013-02-22 15:51:00,
2013-02-22 07:56:00,44.1,36.0,30.23,West,271,0.0,0.0,73,0.00,,,0.00,54,Wunderground v.1.15,2013-02-22 15:56:00,
2013-02-22 08:06:00,46.0,36.0,30.24,NNW,328,0.0,0.0,68,0.00,,,0.00,88,Wunderground v.1.15,2013-02-22 16:06:00,
2013-02-22 08:11:00,46.0,36.4,30.24,NNW,328,0.0,0.0,69,0.00,,,0.00,128,Wunderground v.1.15,2013-02-22 16:11:00,
2013-02-22 08:21:00,46.0,35.7,30.24,NNW,347,0.0,0.0,67,0.00,,,0.00,204,Wunderground v.1.15,2013-02-22 16:21:00,
2013-02-22 08:26:00,46.0,36.0,30.24,NNW,347,0.0,0.0,68,0.00,,,0.00,234,Wunderground v.1.15,2013-02-22 16:26:00,
2013-02-22 08:36:00,46.1,35.4,30.24,NNW,347,0.0,0.0,66,0.00,,,0.00,251,Wunderground v.1.15,2013-02-22 16:36:00,
2013-02-22 08:46:00,46.5,36.1,30.24,NNW,347,0.0,0.0,67,0.00,,,0.00,320,Wunderground v.1.15,2013-02-22 16:46:00,
2013-02-22 08:51:00,47.3,35.7,30.24,NNW,347,0.0,0.0,64,0.00,,,0.00,330,Wunderground v.1.15,2013-02-22 16:51:00,
2013-02-22 08:56:00,47.6,36.0,30.24,NNW,347,0.0,0.0,64,0.00,,,0.00,343,Wunderground v.1.15,2013-02-22 16:56:00,
2013-02-22 09:06:00,48.2,36.6,30.24,NNW,347,0.0,0.0,64,0.00,,,0.00,364,Wunderground v.1.15,2013-02-22 17:06:00,
2013-02-22 09:11:00,48.3,36.7,30.24,NNW,347,0.0,0.0,64,0.00,,,0.00,381,Wunderground v.1.15,2013-02-22 17:11:00,
2013-02-22 09:16:00,48.6,37.4,30.25,NNW,347,0.0,0.0,65,0.00,,,0.00,355,Wunderground v.1.15,2013-02-22 17:16:00,
2013-02-22 09:26:00,48.9,37.6,30.25,NNW,347,0.0,0.0,65,0.00,,,0.00,118,Wunderground v.1.15,2013-02-22 17:26:00,
2013-02-22 09:31:00,49.1,37.4,30.25,North,4,0.0,0.0,64,0.00,,,0.00,83,Wunderground v.1.15,2013-02-22 17:31:00,
2013-02-22 09:41:00,49.2,37.9,30.25,East,82,0.0,0.0,65,0.00,,,0.00,67,Wunderground v.1.15,2013-02-22 17:41:00,
2013-02-22 09:46:00,49.1,38.2,30.25,East,94,0.0,0.0,66,0.00,,,0.00,67,Wunderground v.1.15,2013-02-22 17:46:00,
2013-02-22 09:56:00,49.5,38.6,30.25,East,98,0.0,0.0,66,0.00,,,0.00,102,Wunderground v.1.15,2013-02-22 17:56:00,
2013-02-22 10:06:00,50.1,38.4,30.25,ENE,59,0.0,0.0,64,0.00,,,0.00,70,Wunderground v.1.15,2013-02-22 18:06:00,
2013-02-22 10:16:00,51.3,39.9,30.25,ENE,59,0.0,0.0,65,0.00,,,0.00,162,Wunderground v.1.15,2013-02-22 18:16:00,
2013-02-22 10:21:00,51.9,39.7,30.25,SSE,167,0.0,0.0,63,0.00,,,0.00,193,Wunderground v.1.15,2013-02-22 18:21:00,
2013-02-22 10:26:00,52.5,39.8,30.25,NW,307,0.0,0.0,62,0.00,,,0.00,271,Wunderground v.1.15,2013-02-22 18:26:00,
2013-02-22 10:36:00,53.5,40.8,30.25,SSE,167,0.0,0.0,62,0.00,,,0.00,601,Wunderground v.1.15,2013-02-22 18:36:00,
2013-02-22 10:41:00,54.1,38.3,30.25,ESE,108,0.0,0.0,55,0.00,,,0.00,606,Wunderground v.1.15,2013-02-22 18:41:00,
2013-02-22 10:46:00,54.8,38.9,30.25,ESE,108,0.0,0.0,55,0.00,,,0.00,615,Wunderground v.1.15,2013-02-22 18:46:00,
2013-02-22 10:56:00,56.5,39.6,30.25,SE,140,0.0,0.0,53,0.00,,,0.00,636,Wunderground v.1.15,2013-02-22 18:56:00,
2013-02-22 11:06:00,57.3,38.8,30.25,SE,141,0.0,0.0,50,0.00,,,0.00,656,Wunderground v.1.15,2013-02-22 19:06:00,
2013-02-22 11:11:00,57.8,38.8,30.25,SE,141,0.0,2.0,49,0.00,,,0.00,659,Wunderground v.1.15,2013-02-22 19:11:00,
2013-02-22 11:16:00,57.5,39.0,30.26,SSE,160,0.0,2.0,50,0.00,,,0.00,663,Wunderground v.1.15,2013-02-22 19:16:00,
2013-02-22 11:26:00,58.4,40.8,30.26,NW,320,0.0,0.0,52,0.00,,,0.00,673,Wunderground v.1.15,2013-02-22 19:26:00,
2013-02-22 11:36:00,59.5,40.3,30.25,South,172,0.0,0.0,49,0.00,,,0.00,689,Wunderground v.1.15,2013-02-22 19:36:00,
2013-02-22 11:41:00,59.8,40.1,30.25,South,172,0.0,1.0,48,0.00,,,0.00,687,Wunderground v.1.15,2013-02-22 19:41:00,
2013-02-22 11:51:00,59.8,40.6,30.26,SSW,193,0.0,0.0,49,0.00,,,0.00,691,Wunderground v.1.15,2013-02-22 19:51:00,
2013-02-22 12:01:00,60.5,40.2,30.25,South,175,0.0,0.0,47,0.00,,,0.00,703,Wunderground v.1.15,2013-02-22 20:01:00,
2013-02-22 12:06:00,60.7,38.6,30.25,West,275,0.0,0.0,44,0.00,,,0.00,703,Wunderground v.1.15,2013-02-22 20:06:00,
2013-02-22 12:16:00,60.7,36.8,30.25,SSE,148,0.0,0.0,41,0.00,,,0.00,701,Wunderground v.1.15,2013-02-22 20:16:00,
2013-02-22 12:21:00,60.9,37.6,30.25,SSE,148,0.0,0.0,42,0.00,,,0.00,705,Wunderground v.1.15,2013-02-22 20:21:00,
2013-02-22 12:31:00,61.5,38.2,30.23,WSW,252,0.0,0.0,42,0.00,,,0.00,770,Wunderground v.1.15,2013-02-22 20:31:00,
2013-02-22 12:36:00,61.6,40.0,30.23,WNW,300,0.0,0.0,45,0.00,,,0.00,810,Wunderground v.1.15,2013-02-22 20:36:00,
2013-02-22 12:46:00,61.0,40.1,30.23,West,272,0.0,0.0,46,0.00,,,0.00,758,Wunderground v.1.15,2013-02-22 20:46:00,
2013-02-22 12:56:00,61.0,42.7,30.23,West,263,0.0,0.0,51,0.00,,,0.00,701,Wunderground v.1.15,2013-02-22 20:56:00,
2013-02-22 13:01:00,61.0,40.6,30.23,WNW,301,0.0,0.0,47,0.00,,,0.00,694,Wunderground v.1.15,2013-02-22 21:01:00,
2013-02-22 13:11:00,60.5,40.7,30.23,South,181,0.0,0.0,48,0.00,,,0.00,686,Wunderground v.1.15,2013-02-22 21:11:00,
2013-02-22 13:21:00,59.2,38.4,30.22,SSE,162,1.0,1.0,46,0.00,,,0.00,668,Wunderground v.1.15,2013-02-22 21:21:00,
2013-02-22 13:26:00,59.2,39.0,30.22,SSE,163,0.0,1.0,47,0.00,,,0.00,661,Wunderground v.1.15,2013-02-22 21:26:00,
2013-02-22 13:31:00,59.6,39.9,30.21,SSW,213,0.0,0.0,48,0.00,,,0.00,654,Wunderground v.1.15,2013-02-22 21:31:00,
2013-02-22 13:41:00,60.2,40.4,30.21,SSE,161,0.0,0.0,48,0.00,,,0.00,629,Wunderground v.1.15,2013-02-22 21:41:00,
2013-02-22 13:46:00,60.4,40.1,30.20,SSE,160,0.0,0.0,47,0.00,,,0.00,624,Wunderground v.1.15,2013-02-22 21:46:00,
2013-02-22 13:56:00,60.2,41.0,30.20,SW,220,0.0,0.0,49,0.00,,,0.00,612,Wunderground v.1.15,2013-02-22 21:56:00,
2013-02-22 14:06:00,60.5,41.8,30.20,SE,135,0.0,0.0,50,0.00,,,0.00,598,Wunderground v.1.15,2013-02-22 22:06:00,
2013-02-22 14:11:00,60.2,42.0,30.20,SE,134,0.0,0.0,51,0.00,,,0.00,318,Wunderground v.1.15,2013-02-22 22:11:00,
2013-02-22 14:21:00,59.0,42.4,30.19,South,184,0.0,0.0,54,0.00,,,0.00,72,Wunderground v.1.15,2013-02-22 22:21:00,
2013-02-22 14:26:00,58.6,42.5,30.19,SSE,160,0.0,0.0,55,0.00,,,0.00,62,Wunderground v.1.15,2013-02-22 22:26:00,
2013-02-22 14:31:00,58.3,42.2,30.19,SSE,160,0.0,0.0,55,0.00,,,0.00,58,Wunderground v.1.15,2013-02-22 22:31:00,
2013-02-22 14:36:00,58.1,42.5,30.19,SSE,160,0.0,0.0,56,0.00,,,0.00,84,Wunderground v.1.15,2013-02-22 22:36:00,
2013-02-22 14:46:00,58.0,42.8,30.19,WNW,293,0.0,0.0,57,0.00,,,0.00,135,Wunderground v.1.15,2013-02-22 22:46:00,
2013-02-22 14:56:00,58.0,42.8,30.19,SSE,164,0.0,0.0,57,0.00,,,0.00,58,Wunderground v.1.15,2013-02-22 22:56:00,
2013-02-22 15:01:00,58.1,42.9,30.19,SSW,206,0.0,0.0,57,0.00,,,0.00,83,Wunderground v.1.15,2013-02-22 23:01:00,
2013-02-22 15:11:00,58.4,43.2,30.19,SSW,201,0.0,0.0,57,0.00,,,0.00,76,Wunderground v.1.15,2013-02-22 23:11:00,
2013-02-22 15:16:00,58.6,43.4,30.19,WSW,241,0.0,0.0,57,0.00,,,0.00,76,Wunderground v.1.15,2013-02-22 23:16:00,
2013-02-22 15:26:00,58.9,44.1,30.19,SSW,208,0.0,0.0,58,0.00,,,0.00,49,Wunderground v.1.15,2013-02-22 23:26:00,
2013-02-22 15:36:00,58.9,44.1,30.18,WSW,249,0.0,0.0,58,0.00,,,0.00,44,Wunderground v.1.15,2013-02-22 23:36:00,
2013-02-22 15:41:00,58.7,44.0,30.18,WSW,249,0.0,0.0,58,0.00,,,0.00,44,Wunderground v.1.15,2013-02-22 23:41:00,
2013-02-22 15:46:00,58.7,41.6,30.19,West,263,0.0,0.0,53,0.00,,,0.00,42,Wunderground v.1.15,2013-02-22 23:46:00,
2013-02-22 15:56:00,58.6,43.9,30.19,SSW,198,0.0,0.0,58,0.00,,,0.00,47,Wunderground v.1.15,2013-02-22 23:56:00,
2013-02-22 16:06:00,58.3,44.0,30.18,SSW,198,0.0,0.0,59,0.00,,,0.00,54,Wunderground v.1.15,2013-02-23 00:06:00,
2013-02-22 16:16:00,57.8,44.0,30.18,SSW,198,0.0,0.0,60,0.00,,,0.00,65,Wunderground v.1.15,2013-02-23 00:16:00,
2013-02-22 16:26:00,57.5,44.1,30.18,SSW,198,0.0,0.0,61,0.00,,,0.00,67,Wunderground v.1.15,2013-02-23 00:26:00,
2013-02-22 16:31:00,57.2,44.7,30.18,SSW,198,0.0,0.0,63,0.00,,,0.00,69,Wunderground v.1.15,2013-02-23 00:31:00,
2013-02-22 16:36:00,57.0,45.3,30.18,SSW,198,0.0,0.0,65,0.00,,,0.00,67,Wunderground v.1.15,2013-02-23 00:36:00,
2013-02-22 16:46:00,56.9,44.8,30.17,West,273,0.0,0.0,64,0.00,,,0.00,62,Wunderground v.1.15,2013-02-23 00:46:00,
2013-02-22 16:56:00,56.6,44.6,30.17,West,273,0.0,0.0,64,0.00,,,0.00,56,Wunderground v.1.15,2013-02-23 00:56:00,
2013-02-22 17:01:00,56.3,45.1,30.17,West,273,0.0,0.0,66,0.00,,,0.00,47,Wunderground v.1.15,2013-02-23 01:01:00,
2013-02-22 17:06:00,56.0,44.8,30.17,West,273,0.0,0.0,66,0.00,,,0.00,37,Wunderground v.1.15,2013-02-23 01:06:00,
2013-02-22 17:11:00,55.6,44.8,30.17,West,273,0.0,0.0,67,0.00,,,0.00,33,Wunderground v.1.15,2013-02-23 01:11:00,
2013-02-22 17:21:00,54.7,44.3,30.18,West,273,0.0,0.0,68,0.00,,,0.00,28,Wunderground v.1.15,2013-02-23 01:21:00,
2013-02-22 17:26:00,54.2,44.2,30.18,West,273,0.0,0.0,69,0.00,,,0.00,25,Wunderground v.1.15,2013-02-23 01:26:00,
2013-02-22 17:36:00,53.3,43.8,30.17,West,273,0.0,0.0,70,0.00,,,0.00,16,Wunderground v.1.15,2013-02-23 01:36:00,
2013-02-22 17:46:00,53.1,43.2,30.18,West,272,0.0,0.0,69,0.00,,,0.00,7,Wunderground v.1.15,2013-02-23 01:46:00,
2013-02-22 17:51:00,52.9,42.6,30.18,West,272,0.0,0.0,68,0.00,,,0.00,5,Wunderground v.1.15,2013-02-23 01:51:00,
2013-02-22 18:01:00,52.6,42.7,30.18,West,272,0.0,0.0,69,0.00,,,0.00,0,Wunderground v.1.15,2013-02-23 02:01:00,
2013-02-22 18:11:00,52.2,42.7,30.18,West,281,0.0,0.0,70,0.00,,,0.00,0,Wunderground v.1.15,2013-02-23 02:11:00,
2013-02-22 18:16:00,51.9,42.8,30.19,West,281,0.0,0.0,71,0.00,,,0.00,0,Wunderground v.1.15,2013-02-23 02:16:00,
2013-02-22 18:26:00,51.3,42.6,30.19,West,281,0.0,0.0,72,0.00,,,0.00,0,Wunderground v.1.15,2013-02-23 02:26:00,
2013-02-22 18:31:00,50.8,42.1,30.19,West,281,0.0,0.0,72,0.00,,,0.00,0,Wunderground v.1.15,2013-02-23 02:31:00,
2013-02-22 18:41:00,50.4,42.4,30.19,West,281,0.0,0.0,74,0.00,,,0.00,0,Wunderground v.1.15,2013-02-23 02:41:00,
2013-02-22 18:46:00,50.1,42.1,30.21,West,281,0.0,0.0,74,0.00,,,0.00,0,Wunderground v.1.15,2013-02-23 02:46:00,
2013-02-22 18:56:00,49.9,42.3,30.21,West,281,0.0,0.0,75,0.00,,,0.00,0,Wunderground v.1.15,2013-02-23 02:56:00,
2013-02-22 19:06:00,49.6,42.0,30.21,West,281,0.0,0.0,75,0.00,,,0.00,0,Wunderground v.1.15,2013-02-23 03:06:00,
2013-02-22 19:16:00,49.4,42.1,30.21,West,281,0.0,0.0,76,0.00,,,0.00,0,Wunderground v.1.15,2013-02-23 03:16:00,
2013-02-22 19:21:00,49.4,42.1,30.21,West,281,0.0,0.0,76,0.00,,,0.00,0,Wunderground v.1.15,2013-02-23 03:21:00,
2013-02-22 19:26:00,49.4,42.1,30.21,West,281,0.0,0.0,76,0.00,,,0.00,0,Wunderground v.1.15,2013-02-23 03:26:00,
2013-02-22 19:36:00,49.5,41.9,30.21,West,281,0.0,0.0,75,0.00,,,0.00,0,Wunderground v.1.15,2013-02-23 03:36:00,
2013-02-22 19:46:00,49.8,41.5,30.20,West,281,0.0,0.0,73,0.00,,,0.00,0,Wunderground v.1.15,2013-02-23 03:46:00,
2013-02-22 19:56:00,50.4,41.7,30.20,West,278,0.0,0.0,72,0.00,,,0.00,0,Wunderground v.1.15,2013-02-23 03:56:00,
2013-02-22 20:01:00,50.5,41.8,30.21,West,278,0.0,0.0,72,0.00,,,0.00,0,Wunderground v.1.15,2013-02-23 04:01:00,
2013-02-22 20:06:00,50.5,41.8,30.21,West,278,0.0,0.0,72,0.00,,,0.00,0,Wunderground v.1.15,2013-02-23 04:06:00,
2013-02-22 20:11:00,50.4,41.7,30.21,West,278,0.0,0.0,72,0.00,,,0.00,0,Wunderground v.1.15,2013-02-23 04:11:00,
2013-02-22 20:16:00,50.1,41.4,30.21,West,278,0.0,0.0,72,0.00,,,0.00,0,Wunderground v.1.15,2013-02-23 04:16:00,
2013-02-22 20:26:00,49.6,41.3,30.21,West,278,0.0,0.0,73,0.00,,,0.00,0,Wunderground v.1.15,2013-02-23 04:26:00,
2013-02-22 20:31:00,49.6,41.3,30.22,West,278,0.0,0.0,73,0.00,,,0.00,0,Wunderground v.1.15,2013-02-23 04:31:00,
2013-02-22 20:41:00,49.4,41.5,30.22,West,278,0.0,0.0,74,0.00,,,0.00,0,Wunderground v.1.15,2013-02-23 04:41:00,
2013-02-22 20:51:00,48.8,41.6,30.22,West,278,0.0,0.0,76,0.00,,,0.00,0,Wunderground v.1.15,2013-02-23 04:51:00,
2013-02-22 20:56:00,48.3,41.4,30.22,West,278,0.0,0.0,77,0.00,,,0.00,0,Wunderground v.1.15,2013-02-23 04:56:00,
2013-02-22 21:01:00,48.2,41.7,30.23,West,278,0.0,0.0,78,0.00,,,0.00,0,Wunderground v.1.15,2013-02-23 05:01:00,
2013-02-22 21:06:00,48.2,41.7,30.23,WSW,251,0.0,0.0,78,0.00,,,0.00,0,Wunderground v.1.15,2013-02-23 05:06:00,
2013-02-22 21:11:00,48.0,41.5,30.23,WSW,251,0.0,0.0,78,0.00,,,0.00,0,Wunderground v.1.15,2013-02-23 05:11:00,
2013-02-22 21:16:00,48.0,41.1,30.23,WSW,251,0.0,0.0,77,0.00,,,0.00,0,Wunderground v.1.15,2013-02-23 05:16:00,
2013-02-22 21:26:00,48.0,41.1,30.23,WNW,287,0.0,0.0,77,0.00,,,0.00,0,Wunderground v.1.15,2013-02-23 05:26:00,
2013-02-22 21:31:00,48.0,40.8,30.24,West,281,0.0,0.0,76,0.00,,,0.00,0,Wunderground v.1.15,2013-02-23 05:31:00,
2013-02-22 21:41:00,48.3,40.7,30.24,WSW,239,0.0,0.0,75,0.00,,,0.00,0,Wunderground v.1.15,2013-02-23 05:41:00,
2013-02-22 21:46:00,48.6,40.7,30.24,WNW,295,1.0,1.0,74,0.00,,,0.00,0,Wunderground v.1.15,2013-02-23 05:46:00,
2013-02-22 21:56:00,48.8,40.9,30.24,West,266,0.0,0.0,74,0.00,,,0.00,0,Wunderground v.1.15,2013-02-23 05:56:00,
2013-02-22 22:01:00,48.6,40.7,30.24,West,275,1.0,1.0,74,0.00,,,0.00,0,Wunderground v.1.15,2013-02-23 06:01:00,
2013-02-22 22:11:00,48.3,40.4,30.24,West,264,1.0,1.0,74,0.00,,,0.00,0,Wunderground v.1.15,2013-02-23 06:11:00,
2013-02-22 22:16:00,48.0,40.1,30.24,West,281,1.0,1.0,74,0.00,,,0.00,0,Wunderground v.1.15,2013-02-23 06:16:00,
2013-02-22 22:26:00,47.6,40.1,30.24,West,260,0.0,1.0,75,0.00,,,0.00,0,Wunderground v.1.15,2013-02-23 06:26:00,
2013-02-22 22:31:00,47.3,40.1,30.24,West,280,0.0,0.0,76,0.00,,,0.00,0,Wunderground v.1.15,2013-02-23 06:31:00,
2013-02-22 22:41:00,47.0,39.8,30.24,West,280,0.0,0.0,76,0.00,,,0.00,0,Wunderground v.1.15,2013-02-23 06:41:00,
2013-02-22 22:46:00,46.7,39.9,30.24,West,280,0.0,0.0,77,0.00,,,0.00,0,Wunderground v.1.15,2013-02-23 06:46:00,
2013-02-22 22:56:00,46.4,39.6,30.24,WNW,284,0.0,0.0,77,0.00,,,0.00,0,Wunderground v.1.15,2013-02-23 06:56:00,
2013-02-22 23:06:00,46.2,39.7,30.24,WNW,284,0.0,0.0,78,0.00,,,0.00,0,Wunderground v.1.15,2013-02-23 07:06:00,
2013-02-22 23:16:00,46.0,39.5,30.22,NW,306,0.0,0.0,78,0.00,,,0.00,0,Wunderground v.1.15,2013-02-23 07:16:00,
2013-02-22 23:21:00,46.0,39.5,30.22,SW,234,0.0,0.0,78,0.00,,,0.00,0,Wunderground v.1.15,2013-02-23 07:21:00,
2013-02-22 23:31:00,45.8,39.3,30.22,West,265,0.0,0.0,78,0.00,,,0.00,0,Wunderground v.1.15,2013-02-23 07:31:00,
2013-02-22 23:36:00,45.8,39.3,30.22,WNW,284,0.0,2.0,78,0.00,,,0.00,0,Wunderground v.1.15,2013-02-23 07:36:00,
2013-02-22 23:46:00,45.7,39.2,30.22,WNW,284,0.0,0.0,78,0.00,,,0.00,0,Wunderground v.1.15,2013-02-23 07:46:00,
2013-02-22 23:51:00,45.7,39.2,30.22,WNW,284,0.0,0.0,78,0.00,,,0.00,0,Wunderground v.1.15,2013-02-23 07:51:00,
2013-02-22 23:56:00,45.5,39.0,30.22,WNW,284,0.0,0.0,78,0.00,,,0.00,0,Wunderground v.1.15,2013-02-23 07:56:00,